Terminal Aerodrome Forecast
Issued by NWS Austin/San Antonio, TX

Home | Current Version | Previous Version | Text Only | Print | Product List | Glossary On
Versions: 1 2 3 4 5 6 7 8 9 10 11 12
000
FTUS44 KEWX 291126
TAFDRT
TAF
KDRT 291126Z 2912/3012 11008KT P6SM SCT120
     FM291500 15011KT P6SM BKN250=

USA.gov is the U.S. government's official web portal to all federal, state and local government web resources and services.